Tracking 19283 objects as of 17-Nov-2018
HD Live streaming from Space Station
objects crossing your sky now

EUROBIRD 4A(EUTELSAT W1)

Track EUROBIRD 4A(EUTELSAT W1) now!
EUROBIRD 4A(EUTELSAT W1) is classified as:


NORAD ID: 26487
Int'l Code: 2000-052A
Perigee: 36,322.3 km
Apogee: 36,457.7 km
Inclination: 5.6 °
Period: 1,466.7 minutes
Semi major axis: 42760 km
RCS: 8.6539 m2 (large)
Launch date: September 6, 2000
Source: European Telecommunications Satellite Organization (EUTE)
Launch site: FRENCH GUIANA (FRGUI)

Twenty-eight channels, Europe, Atlantic Islands, North Africa, Middle East, Central Asia.
aabbcc
Your satellite tracking list
Your tracking list is empty




NASA's NSSDC Master Catalog

Two Line Element Set (TLE):
1 26487U 00052A   18320.55787720 -.00000201 +00000-0 +00000-0 0  9993
2 26487 005.6129 065.2067 0015835 215.0708 132.6139 00.98181940065986
Source of the keplerian elements: AFSPC